Tiempo cada hora Golebie

Hoy, 27 Noviembre, Viernes

Tiempo Temperatura Precipitaciones Viento Presión Humedad
00:00 0°C° 0 mm 5 mps 749 mmHg 82%
01:00 +1°C° 0 mm 5 mps 749 mmHg 84%
02:00 +1°C° 0 mm 6 mps 749 mmHg 86%
03:00 +1°C° 0 mm 6 mps 749 mmHg 88%
04:00 +1°C° 0 mm 6 mps 749 mmHg 90%
05:00 +2°C° 0 mm 6 mps 748 mmHg 92%
06:00 +2°C° 0 mm 6 mps 748 mmHg 91%
07:00 +1°C° 0 mm 6 mps 748 mmHg 91%
08:00 +1°C° 0 mm 6 mps 748 mmHg 90%
09:00 +2°C° 0 mm 6 mps 749 mmHg 89%
10:00 +2°C° 0 mm 6 mps 749 mmHg 87%
11:00 +3°C° 0 mm 6 mps 749 mmHg 86%
12:00 +3°C° 0 mm 6 mps 749 mmHg 85%
13:00 +3°C° 0 mm 6 mps 749 mmHg 84%
14:00 +3°C° 0 mm 5 mps 750 mmHg 84%
15:00 +3°C° 0 mm 5 mps 750 mmHg 84%
16:00 +3°C° 0 mm 5 mps 750 mmHg 84%
17:00 +4°C° 0 mm 4 mps 750 mmHg 83%
18:00 +4°C° 0.1 mm 4 mps 750 mmHg 85%
19:00 +3°C° 0.1 mm 4 mps 750 mmHg 86%
20:00 +3°C° 0.1 mm 4 mps 749 mmHg 87%
21:00 +3°C° 0 mm 4 mps 749 mmHg 85%
22:00 +3°C° 0 mm 4 mps 749 mmHg 83%
23:00 +1°C° 0 mm 4 mps 749 mmHg 80%

Mañana, 28 Noviembre, Sábado

Tiempo Temperatura Precipitaciones Viento Presión Humedad
00:00 +1°C° 0.2 mm 4 mps 749 mmHg 82%
01:00 +1°C° 0.2 mm 4 mps 749 mmHg 85%
02:00 +1°C° 0.2 mm 4 mps 749 mmHg 87%
03:00 0°C° 0.4 mm 4 mps 749 mmHg 90%
04:00 0°C° 0.4 mm 4 mps 749 mmHg 92%
05:00 0°C° 0.4 mm 3 mps 749 mmHg 95%
06:00 -1°C° 0.1 mm 4 mps 750 mmHg 93%
07:00 -2°C° 0.1 mm 4 mps 750 mmHg 90%
08:00 -2°C° 0.1 mm 4 mps 750 mmHg 88%
09:00 -2°C° 0 mm 4 mps 751 mmHg 86%
10:00 -2°C° 0 mm 4 mps 751 mmHg 83%
11:00 -2°C° 0 mm 4 mps 751 mmHg 81%
12:00 -2°C° 0 mm 4 mps 751 mmHg 80%
13:00 -1°C° 0 mm 4 mps 751 mmHg 79%
14:00 -1°C° 0 mm 4 mps 751 mmHg 78%
15:00 -1°C° 0.1 mm 3 mps 751 mmHg 84%
16:00 -1°C° 0.1 mm 3 mps 751 mmHg 89%
17:00 -1°C° 0.1 mm 3 mps 751 mmHg 95%
18:00 -1°C° 0.2 mm 3 mps 751 mmHg 95%
19:00 -1°C° 0.2 mm 3 mps 752 mmHg 96%
20:00 -1°C° 0.2 mm 3 mps 752 mmHg 96%
21:00 0°C° 0.1 mm 3 mps 752 mmHg 96%
22:00 0°C° 0.1 mm 3 mps 752 mmHg 96%
23:00 0°C° 0.1 mm 3 mps 752 mmHg 96%

Pasado mañana, 29 Noviembre, Domingo

Tiempo Temperatura Precipitaciones Viento Presión Humedad
00:00 0°C° 0.2 mm 3 mps 752 mmHg 96%
01:00 0°C° 0.2 mm 3 mps 752 mmHg 96%
02:00 0°C° 0.2 mm 3 mps 752 mmHg 96%
03:00 0°C° 0.2 mm 3 mps 751 mmHg 96%
04:00 -1°C° 0.2 mm 3 mps 751 mmHg 95%
05:00 -1°C° 0.2 mm 3 mps 751 mmHg 94%
06:00 -2°C° 0 mm 3 mps 751 mmHg 93%
07:00 -2°C° 0 mm 3 mps 751 mmHg 91%
08:00 -3°C° 0 mm 2 mps 751 mmHg 90%
09:00 -2°C° 0 mm 3 mps 751 mmHg 87%
10:00 -2°C° 0 mm 3 mps 752 mmHg 85%
11:00 -1°C° 0 mm 3 mps 752 mmHg 82%
12:00 -1°C° 0 mm 3 mps 752 mmHg 85%
13:00 -1°C° 0 mm 3 mps 752 mmHg 88%
14:00 -1°C° 0 mm 3 mps 752 mmHg 91%
15:00 -1°C° 0.1 mm 3 mps 752 mmHg 93%
16:00 -1°C° 0.1 mm 3 mps 752 mmHg 94%
17:00 -1°C° 0.1 mm 3 mps 752 mmHg 96%
18:00 -1°C° 0 mm 3 mps 752 mmHg 96%
19:00 -1°C° 0 mm 3 mps 752 mmHg 96%
20:00 -2°C° 0 mm 2 mps 752 mmHg 96%
21:00 -2°C° 0 mm 2 mps 752 mmHg 95%
22:00 -2°C° 0 mm 2 mps 752 mmHg 95%
23:00 -1°C° 0 mm 1 mps 753 mmHg 95%

30 Noviembre, Lunes

Tiempo Temperatura Precipitaciones Viento Presión Humedad
00:00 -1°C° 0 mm 1 mps 753 mmHg 95%
01:00 -1°C° 0 mm 1 mps 753 mmHg 95%
02:00 -1°C° 0 mm 1 mps 753 mmHg 94%
03:00 -3°C° 0 mm 2 mps 753 mmHg 94%
04:00 -3°C° 0 mm 2 mps 753 mmHg 94%
05:00 -2°C° 0 mm 2 mps 753 mmHg 94%
06:00 -2°C° 0 mm 2 mps 754 mmHg 93%
07:00 -2°C° 0 mm 2 mps 754 mmHg 93%
08:00 -2°C° 0 mm 2 mps 755 mmHg 93%
09:00 -2°C° 0 mm 3 mps 755 mmHg 88%
10:00 -1°C° 0 mm 3 mps 756 mmHg 84%
11:00 -1°C° 0 mm 3 mps 756 mmHg 80%
12:00 -1°C° 0 mm 3 mps 756 mmHg 77%
13:00 -2°C° 0 mm 4 mps 757 mmHg 75%
14:00 -1°C° 0 mm 4 mps 757 mmHg 73%
15:00 -1°C° 0 mm 3 mps 757 mmHg 76%
16:00 -2°C° 0 mm 3 mps 757 mmHg 80%
17:00 -3°C° 0 mm 2 mps 757 mmHg 84%
18:00 -4°C° 0 mm 3 mps 758 mmHg 84%
19:00 -4°C° 0 mm 3 mps 758 mmHg 85%
20:00 -4°C° 0 mm 3 mps 758 mmHg 86%
21:00 -4°C° 0 mm 3 mps 758 mmHg 86%
22:00 -4°C° 0 mm 3 mps 759 mmHg 85%
23:00 -4°C° 0 mm 3 mps 759 mmHg 85%

1 Diciembre, Martes

Tiempo Temperatura Precipitaciones Viento Presión Humedad
00:00 -4°C° 0 mm 3 mps 759 mmHg 86%
01:00 -4°C° 0 mm 3 mps 759 mmHg 87%
02:00 -4°C° 0 mm 3 mps 759 mmHg 88%
03:00 -4°C° 0 mm 3 mps 758 mmHg 88%
04:00 -4°C° 0 mm 3 mps 758 mmHg 88%
05:00 -4°C° 0 mm 3 mps 758 mmHg 89%
06:00 -4°C° 0 mm 3 mps 758 mmHg 89%
07:00 -4°C° 0 mm 3 mps 758 mmHg 88%
08:00 -4°C° 0 mm 4 mps 758 mmHg 88%
09:00 -3°C° 0 mm 4 mps 758 mmHg 86%
10:00 -3°C° 0 mm 4 mps 758 mmHg 84%
11:00 -2°C° 0 mm 4 mps 758 mmHg 82%
12:00 -2°C° 0 mm 4 mps 757 mmHg 81%
13:00 -2°C° 0 mm 4 mps 757 mmHg 80%
14:00 -1°C° 0 mm 4 mps 757 mmHg 79%
15:00 -2°C° 0 mm 4 mps 756 mmHg 81%
16:00 -2°C° 0 mm 4 mps 756 mmHg 83%
17:00 -2°C° 0 mm 4 mps 756 mmHg 85%
18:00 -3°C° 0 mm 4 mps 756 mmHg 85%
19:00 -4°C° 0 mm 5 mps 756 mmHg 84%
20:00 -4°C° 0 mm 5 mps 756 mmHg 84%
21:00 -4°C° 0.2 mm 5 mps 755 mmHg 86%
22:00 -4°C° 0.2 mm 5 mps 755 mmHg 88%
23:00 -4°C° 0.2 mm 5 mps 755 mmHg 90%

2 Diciembre, Miércoles

Tiempo Temperatura Precipitaciones Viento Presión Humedad
00:00 -4°C° 0.3 mm 5 mps 755 mmHg 91%
01:00 -4°C° 0.3 mm 5 mps 754 mmHg 92%
02:00 -4°C° 0.3 mm 5 mps 754 mmHg 92%
03:00 -4°C° 0.3 mm 5 mps 754 mmHg 93%
04:00 -3°C° 0.3 mm 4 mps 754 mmHg 93%
05:00 -4°C° 0.3 mm 4 mps 754 mmHg 94%
06:00 -4°C° 0.1 mm 4 mps 754 mmHg 93%
07:00 -4°C° 0.1 mm 3 mps 754 mmHg 93%
08:00 -4°C° 0.1 mm 3 mps 754 mmHg 92%
09:00 -4°C° 0 mm 3 mps 754 mmHg 89%
10:00 -2°C° 0 mm 3 mps 755 mmHg 87%
11:00 -3°C° 0 mm 4 mps 755 mmHg 84%
12:00 -1°C° 0 mm 3 mps 755 mmHg 81%
13:00 -1°C° 0 mm 3 mps 755 mmHg 79%
14:00 -1°C° 0 mm 3 mps 755 mmHg 77%
15:00 -1°C° 0 mm 2 mps 755 mmHg 80%
16:00 -2°C° 0 mm 2 mps 756 mmHg 82%
17:00 -3°C° 0 mm 2 mps 756 mmHg 85%
18:00 -3°C° 0 mm 2 mps 756 mmHg 86%
19:00 -3°C° 0 mm 2 mps 756 mmHg 87%
20:00 -5°C° 0 mm 3 mps 757 mmHg 88%
21:00 -4°C° 0 mm 2 mps 757 mmHg 87%
22:00 -4°C° 0 mm 2 mps 757 mmHg 87%
23:00 -4°C° 0 mm 2 mps 758 mmHg 86%
Mostrar más

Necesitamos Su Consentimiento

Meteoprog y nuestros Proveedores de Servicios pueden almacenar y acceder a sus datos personales como cookies, identificadores de dispositivo u otras tecnologías similares de su dispositivo y procesar dichos datos para personalizar contenido y anuncios, además de ofrecer funciones de redes sociales y analizar el tráfico.

  • Almacenar y/o acceder a información en su dispositivo

    Se puede almacenar o acceder a cookies, identificadores de dispositivo u otra información de su dispositivo para los fines anteriormente indicados.

  • Anuncios y contenido personalizados, medición de anuncios y contenido, percepciones del público, y desarrollo de productos

    Los anuncios y el contenido pueden personalizarse en base a su perfil. Se pueden añadir más datos para personalizar mejor los anuncios y contenidos. Se puede medir el rendimiento de los anuncios y contenidos. Se puede obtener la percepción sobre el público que ha visto los anuncios y contenidos. Dichos datos pueden usarse para desarrollar o mejorar la experiencia del usuario, sistemas y software.

Al hacer clic en ‘Estoy De Acuerdo’ usted permitirá el uso de las cookies, identificadores de dispositivo, balizas web u otras tecnologías similares indicadas. Su configuración puede cambiarse desde el navegador de su dispositivo.

Para ciertos fines, los intereses legítimos pueden ser considerados por encima del consentimiento. Puede leer más sobre ello en nuestra Política de Privacidad y Cookies.